STARLINK-5854, 55923

Orbit data source: Space-Track

STARLINK-5854, 55923 is a payload satellite owned by SpaceX/Seattle (US) in LEO that was launched on Fri, 17 Mar 2023 UTC via an FALCON 9 launch vehicle from the Air Force Western Test Range (AFWTR). Payload-class satellites include a variety of spacecraft equipped with specific instruments for various scientific and technological missions. These include communications satellites like Starlink; space stations such as the ISS; scientific satellites like the Hubble; Earth observation satellites from companies like Planet Labs, Umbra, and HawkEye 360; GPS; miniature CubeSats for education and research; and military/defense satellites.

Loading next visibility...
Identifier
55923, 2023-037K
Orbit
LEO
Country
Flag of USUS
Related business
Manufacturer
SpaceX/Seattle
Mission
Operational Commercial Communications
Bus & Motor
STARLINK, Unknown motor
Mass
305 kg wet, ~290 kg dry
Launch date (UTC)
2023-03-17 (3 years ago)
Launch vehicle
FALCON 9
Launch site
Air Force Western Test Range (AFWTR)
Object type
Payload
Rocket body
Debris
Shape & HBR
Box + 1 Pan, 10.1 m
Radar Cross Section
11.087 m², Large (>1 m²)

Expand to show TLE details & history
Last TLE update: 7 hours ago

TLE from 7 hours ago
0 STARLINK-5854
1 55923U 23037K   25349.88232702  .00000506  00000-0  50216-4 0  9993
2 55923  69.9987 155.7626 0002922 271.1199  88.9625 14.98334598150931
Epoch: 2025-12-15T21:10Z
TLE epoch observation values (Epoch: 2025-12-15T21:10:33.054Z)
Latitude
-0.00005°
Longitude
113.35034°
Altitude
574.429 km
Speed
7.574 km/s
True Right ascension
10h 23m 03s
True Declination
0° 00' 00"
Sunlit
Object was in daylight at epoch
Visualization orbit readout
Latitude
Unknown
Longitude
Unknown
Altitude
Unknown
Speed
Unknown
Apparent Right ascension
Unknown
Apparent Declination
Unknown
Sunlit
N/A
Visualization observer readout
Local Sidereal Time
03:06:50
Azimuth
Unknown
Elevation
Unknown
Doppler factor
Unknown
Orbital elements
Apogee altitude
572.02 km
Perigee altitude
567.96 km
Semi-major axis
6,948.127 km
Eccentricity
0.00029
Inclination
69.9987°
RAAN
155.7626°
Arg. of periapsis
271.1199°
True anomaly
88.99598°
Mean anomaly
88.9625°
Eccentric anomaly
88.97924°
Mean motion
3.7475 °/min
Orbital period
96.06 mins
BSTAR
0.000050216
Loading maneuver chart data...
Computing Atmospheric mass density...
Loading historical data...
Loading historical data...
Loading historical data...
Loading historical data...
Loading historical data...
Loading historical data...
Loading historical data...

Documentation

Showing up to 5 results
|